DW5759 Weather Reports


time (UTC)temp
F
wind
direction
speed
knots
gust
knots
rain 1hr
in
rain 24hr
in
rain mn
in
humidity
%
barometer
mb
20260508121507 47 158 0.0 0.0 0.00 0.00 0.00 73 1011.7
20260508120012 45 160 0.0 0.0 0.00 0.00 0.00 77 1011.8
20260508114517 44 149 0.0 0.0 0.00 0.00 0.00 78 1011.7
20260508113017 43 166 0.0 0.0 0.00 0.00 0.00 80 1011.5
20260508111516 43 201 0.0 0.9 0.00 0.00 0.00 79 1011.3
20260508110006 43 151 0.0 0.0 0.00 0.00 0.00 78 1011.3
20260508104508 43 151 0.0 0.0 0.00 0.00 0.00 78 1011.3
20260508103011 43 155 0.0 0.0 0.00 0.00 0.00 78 1011.2
20260508101513 43 351 0.0 0.0 0.00 0.00 0.00 76 1010.9
20260508100006 42 343 0.0 0.0 0.00 0.00 0.00 76 1010.8
20260508094507 42 343 0.0 0.0 0.00 0.00 0.00 77 1010.4
20260508093027 42 343 0.0 0.0 0.00 0.00 0.00 77 1010.4
20260508091510 42 300 0.0 0.0 0.00 0.00 0.00 78 1010.3
20260508090011 42 295 0.0 0.0 0.00 0.00 0.00 77 1010.2
20260508084508 42 348 0.0 0.0 0.00 0.00 0.00 77 1010.3
20260508083012 43 348 0.0 0.0 0.00 0.00 0.00 75 1010.4
20260508081513 44 357 0.0 0.0 0.00 0.00 0.00 74 1010.2
20260508080010 45 357 0.0 0.0 0.00 0.00 0.00 73 1010.0
20260508074516 46 357 0.0 0.0 0.00 0.00 0.00 72 1010.0
20260508073008 46 357 0.0 0.0 0.00 0.00 0.00 69 1009.9
20260508071513 46 357 0.0 0.0 0.00 0.00 0.00 69 1009.9
20260508070012 46 357 0.0 0.0 0.00 0.00 0.00 67 1009.9
20260508064514 46 357 0.0 0.0 0.00 0.00 0.00 66 1010.0
20260508063013 46 357 0.0 0.0 0.00 0.00 0.00 68 1010.1
20260508061515 46 357 0.0 0.0 0.00 0.00 0.00 72 1009.9
20260508060015 46 357 0.0 0.0 0.00 0.00 0.00 72 1010.1
20260508054512 46 351 0.0 0.0 0.00 0.00 0.00 73 1009.8
20260508053016 46 351 0.0 0.0 0.00 0.00 0.00 72 1009.2
20260508051517 46 351 0.0 0.0 0.00 0.00 0.00 74 1008.6
20260508050010 46 350 0.0 0.0 0.00 0.00 0.00 75 1009.0
20260508044515 46 282 0.0 0.0 0.00 0.00 0.00 73 1009.3
20260508043016 45 282 0.0 0.0 0.00 0.00 0.00 74 1009.2
20260508041517 45 282 0.0 0.0 0.00 0.00 0.00 75 1009.4
20260508040018 45 282 0.0 0.0 0.00 0.00 0.00 74 1009.3
20260508034517 45 282 0.0 0.0 0.00 0.00 0.00 74 1009.3
20260508033025 46 282 0.0 0.0 0.00 0.00 0.00 74 1009.5
20260508031519 46 282 0.0 0.0 0.00 0.00 0.00 72 1009.5
20260508030020 46 282 0.0 0.0 0.00 0.00 0.00 71 1009.4
20260508024520 46 282 0.0 0.0 0.00 0.00 0.00 70 1009.5
20260508023027 46 282 0.0 0.0 0.00 0.00 0.00 67 1009.4
20260508021521 47 282 0.0 0.0 0.00 0.00 0.00 66 1009.5
20260508020021 47 282 0.0 0.0 0.00 0.00 0.00 65 1009.3
20260508014520 48 283 0.0 0.0 0.00 0.00 0.00 64 1009.3
20260508013020 48 285 0.0 0.0 0.00 0.00 0.00 62 1009.2
20260508011517 48 296 0.0 0.0 0.00 0.00 0.00 62 1009.0
20260508010036 49 297 0.0 0.0 0.00 0.00 0.00 60 1008.9
20260508004523 50 1 0.0 0.0 0.00 0.00 0.00 60 1008.5
20260508003022 51 1 0.0 0.0 0.00 0.00 0.00 57 1008.4
20260508001530 53 1 0.0 0.0 0.00 0.00 0.00 54 1008.1
20260508000020 55 1 0.0 2.6 0.00 0.00 0.00 47 1007.9
20260507234524 56 293 0.0 0.0 0.00 0.00 0.00 48 1008.0
20260507233019 56 293 0.0 0.0 0.00 0.00 0.00 44 1007.9
20260507231522 57 269 0.0 3.5 0.00 0.00 0.00 44 1007.8
20260507230013 57 275 0.0 2.6 0.00 0.00 0.00 42 1007.6
20260507224528 57 257 0.0 7.0 0.00 0.00 0.00 41 1007.7
20260507223006 58 316 2.6 5.2 0.00 0.00 0.00 40 1007.7
20260507221505 58 23 0.0 0.9 0.00 0.00 0.00 41 1007.7
20260507220018 59 286 0.0 5.2 0.00 0.00 0.00 38 1007.8
20260507214521 59 290 1.7 7.0 0.00 0.00 0.00 39 1007.7
20260507213029 58 257 0.0 3.5 0.00 0.00 0.00 40 1007.7
20260507211504 59 279 0.0 6.1 0.00 0.00 0.00 40 1007.7
20260507210023 59 293 0.0 3.5 0.00 0.00 0.00 40 1007.6
20260507204513 59 340 1.7 6.1 0.00 0.01 0.00 39 1007.6
20260507203021 59 265 3.5 7.8 0.00 0.02 0.00 40 1007.5
20260507201520 60 281 0.9 8.7 0.00 0.02 0.00 39 1007.5
20260507200019 60 294 1.7 8.7 0.00 0.02 0.00 38 1007.6
20260507194512 60 287 0.9 7.8 0.00 0.02 0.00 39 1007.7
20260507193024 59 248 1.7 7.8 0.00 0.02 0.00 38 1007.8
20260507191511 60 298 1.7 7.0 0.00 0.02 0.00 39 1007.8
20260507190005 59 359 2.6 7.8 0.00 0.02 0.00 37 1008.2
20260507184511 60 315 0.0 6.1 0.00 0.02 0.00 37 1008.1
20260507183013 60 315 2.6 7.8 0.00 0.04 0.00 38 1008.2
20260507181520 60 290 0.9 7.0 0.00 0.06 0.00 40 1008.3
20260507180022 59 351 0.0 5.2 0.00 0.08 0.00 39 1008.5
20260507174506 60 313 1.7 7.0 0.00 0.09 0.00 40 1008.7
20260507173016 59 271 1.7 10.4 0.00 0.10 0.00 37 1008.9
20260507171513 59 233 1.7 7.8 0.00 0.12 0.00 40 1008.8
20260507170019 58 3 0.0 5.2 0.00 0.14 0.00 39 1008.9
20260507164524 57 6 0.0 6.1 0.00 0.16 0.00 39 1009.1
20260507163006 57 10 1.7 7.0 0.00 0.19 0.00 43 1009.1
20260507161519 57 309 1.7 7.0 0.00 0.21 0.00 44 1009.3
20260507160029 56 318 0.9 7.0 0.00 0.24 0.00 43 1010.0
20260507154522 56 290 0.9 5.2 0.00 0.26 0.00 43 1010.2
20260507153025 55 287 0.9 8.7 0.00 0.29 0.00 43 1010.3
20260507151511 55 244 3.5 6.1 0.00 0.32 0.00 44 1010.2
20260507150014 54 347 0.9 6.1 0.00 0.35 0.00 44 1010.4
20260507144529 54 278 2.6 7.8 0.00 0.36 0.00 45 1010.5
20260507143022 54 272 0.0 5.2 0.00 0.37 0.00 47 1010.6
20260507141528 52 286 0.0 1.7 0.00 0.38 0.00 48 1010.7
20260507140032 52 360 0.0 4.3 0.00 0.38 0.00 46 1010.8
20260507134502 52 15 0.0 6.1 0.00 0.38 0.00 48 1011.0
20260507133007 51 29 0.0 4.3 0.00 0.38 0.00 50 1011.1
20260507131529 51 360 1.7 6.1 0.00 0.38 0.00 48 1011.0
20260507130019 50 355 2.6 7.0 0.00 0.38 0.00 50 1011.0
20260507124516 49 6 0.0 9.6 0.00 0.38 0.00 56 1010.9
20260507123003 48 325 0.0 3.5 0.00 0.38 0.00 60 1010.8